Location: Unspecified
(0.0000°N, 0.0000°E)
Time: 15:07:44
(UTC+00:00)

ISS - Visible Passes

Search period start: 28 August 2014 00:00
Search period end: 07 September 2014 00:00
Orbit: 414 x 419 km, 51.6° (Epoch: 27 August)

Date Brightness Start Highest point End Pass type
(mag) Time Alt. Az. Time Alt. Az. Time Alt. Az.
28 Aug -0.2 19:50:14 10° NNW 19:50:16 10° NNW 19:50:16 10° NNW visible
29 Aug -1.5 19:02:32 10° N 19:04:33 19° NE 19:04:33 19° NE visible
30 Aug -0.8 19:50:08 10° WNW 19:51:53 23° W 19:51:53 23° W visible
31 Aug -3.2 19:01:14 10° NW 19:04:32 75° SW 19:06:19 25° SSE visible
02 Sep -0.4 19:01:58 10° W 19:03:54 15° SW 19:05:51 10° SSW visible
03 Sep -0.2 05:01:54 10° SSE 05:03:06 12° SE 05:04:18 10° ESE visible
05 Sep -2.6 04:59:18 12° SSW 05:02:16 55° SE 05:05:30 10° NE visible
06 Sep -1.0 04:13:37 22° ESE 04:13:37 22° ESE 04:16:09 10° ENE visible
